Fort Eustis, VA

9:03 PM EST on November 21, 2019 (GMT -0500)
Felker Army Air Field

Weather History for KFAF - September, 2019

Change the Weather History Date:

Friday, September 27, 2019

  Actual Average Record
Temperature  
Mean Temperature 76 °F -  
Max Temperature 81 °F 74 °F 87 °F (2002)
Min Temperature 71 °F 59 °F 50 °F (2001)
Cooling Degree Days 11    
Growing Degree Days 26 (Base 50)    
Moisture  
Dew Point 62 °F    
Average Humidity 64    
Maximum Humidity 84    
Minimum Humidity 40    
Precipitation  
Precipitation 0.00 in - - ()
Sea Level Pressure  
Sea Level Pressure 30.06 in    
Wind  
Wind Speed 5 mph ()    
Max Wind Speed 14 mph    
Max Gust Speed 20 mph    
Visibility 9.8 miles    
Events      
Averages and records for this station are not official NWS values.
T = Trace of Precipitation, MM = Missing Value Source: Averaged Metar Reports

Daily Weather History Graph

Daily Weather History Graph

Search for Another Location

Airport or City:

Astronomy

Sep. 27, 2019 Rise Set
Actual Time 6:58 AM EDT 6:56 PM EDT
Civil Twilight 6:32 AM EDT 7:22 PM EDT
Nautical Twilight 6:02 AM EDT 7:52 PM EDT
Astronomical Twilight 5:31 AM EDT 8:22 PM EDT
Moon 5:20 AM EDT (9/27) 6:42 PM EDT (9/27)
Length of Visible Light 12h 49m
Length of Day
11h 57m
Waning Crescent, 2% of the Moon is Illuminated
Sep 27
Waning Crescent
Sep 28
New
Oct 5
First Quarter
Oct 13
Full
Oct 21
Last Quarter

Hourly Weather History & Observations

Time (EDT) Temp. Heat Index Dew Point Humidity Pressure Visibility Wind Dir Wind Speed Gust Speed Precip Events Conditions
12:56 AM 76.1 °F - 65.5 °F 70% 29.93 in 10.0 mi NNE 5.8 mph - N/A   Mostly Cloudy
1:56 AM 75.6 °F - 65.1 °F 70% 29.93 in 10.0 mi Calm Calm - N/A   Partly Cloudy
2:56 AM 74.8 °F - 66.4 °F 75% 29.94 in 4.0 mi NE 3.5 mph - N/A   Haze
3:56 AM 74.5 °F - 66.0 °F 75% 29.96 in 10.0 mi East 3.5 mph - N/A   Partly Cloudy
4:56 AM 73.0 °F - 64.2 °F 74% 29.98 in 10.0 mi ENE 4.6 mph - N/A   Clear
5:56 AM 72.1 °F - 63.0 °F 73% 30.00 in 10.0 mi ENE 3.5 mph - N/A   Scattered Clouds
6:56 AM 71.1 °F - 63.1 °F 76% 30.02 in 10.0 mi ENE 4.6 mph - N/A   Scattered Clouds
7:56 AM 72.5 °F - 63.7 °F 74% 30.06 in 10.0 mi ENE 3.5 mph - N/A   Partly Cloudy
8:56 AM 75.7 °F - 61.7 °F 62% 30.07 in 10.0 mi East 10.4 mph - N/A   Clear
9:56 AM 77.2 °F - 60.3 °F 56% 30.10 in 10.0 mi East 10.4 mph - N/A   Scattered Clouds
10:56 AM 77.5 °F - 59.5 °F 54% 30.11 in 10.0 mi ESE 11.5 mph - N/A   Mostly Cloudy
11:06 AM 78.8 °F - 59.0 °F 51% 30.11 in 10.0 mi East 13.8 mph 19.6 mph N/A   Mostly Cloudy
11:56 AM 79.2 °F - 60.4 °F 53% 30.12 in 10.0 mi East 8.1 mph - N/A   Mostly Cloudy
12:56 PM 79.0 °F - 58.6 °F 50% 30.11 in 10.0 mi ESE 6.9 mph - N/A   Scattered Clouds
1:56 PM 79.5 °F - 59.2 °F 50% 30.10 in 10.0 mi East 10.4 mph - N/A   Clear
2:56 PM 81.0 °F 81.0 °F 57.0 °F 44% 30.08 in 10.0 mi East 9.2 mph - N/A   Scattered Clouds
3:56 PM 81.1 °F 80.8 °F 54.5 °F 40% 30.06 in 10.0 mi East 8.1 mph - N/A   Partly Cloudy
4:56 PM 80.4 °F 80.5 °F 55.8 °F 43% 30.07 in 10.0 mi ESE 10.4 mph - N/A   Clear
5:56 PM 78.6 °F - 57.7 °F 49% 30.07 in 10.0 mi ESE 9.2 mph - N/A   Clear
6:56 PM 75.4 °F - 63.1 °F 66% 30.08 in 10.0 mi East 5.8 mph - N/A   Clear
7:56 PM 73.6 °F - 65.1 °F 75% 30.11 in 10.0 mi East 5.8 mph - N/A   Clear
9:56 PM 73.0 °F - 66.7 °F 81% 30.11 in 10.0 mi East 4.6 mph - N/A   Overcast
10:56 PM 73.0 °F - 67.1 °F 82% 30.12 in 10.0 mi ESE 5.8 mph - N/A   Partly Cloudy
11:56 PM 72.3 °F - 67.1 °F 84% 30.11 in 10.0 mi SE 4.6 mph - N/A   Mostly Cloudy